CAPE
0 0 0 0 0 0 0 5 3 0 3 11 6 14 10 9 9 9 9 11 9 11
0 0 0 0 0 0 0 1 0 0 0 3 2 8 10 11 7 10 9 11 9 9
0 0 0 0 0 0 0 0 0 0 0 0 0 5 6 6 6 8 10 8 7 6
0 0 0 0 0 0 0 0 0 0 0 0 0 1 5 5 3 5 4 7 5 5
0 0 0 0 0 0 0 0 0 0 0 0 0 0 0 0 1 1 1 2 5 5
0 0 0 0 0 0 0 0 0 0 0 0 0 0 0 0 0 0 0 0 0 0
0 0 0 0 0 0 0 0 0 0 0 0 0 0 0 0 0 0 0 0 0 2
0 0 0 0 0 0 0 0 0 0 0 0 0 0 0 0 0 0 0 0 0 0
0 0 0 0 0 0 0 0 0 0 0 0 0 1 0 0 0 0 0 0 0 0
0 0 0 0 0 0 0 0 0 0 0 0 0 5 2 0 0 0 0 0 0 3
0 0 0 0 0 0 0 0 0 0 0 0 0 2 1 0 0 0 0 0 0 0
0 0 0 0 0 0 0 0 0 0 0 0 0 1 1 0 0 0 0 0 0 0
0 0 0 0 0 0 0 0 0 0 0 0 0 3 2 0 0 0 0 0 0 7
0 0 0 0 0 0 0 0 0 0 0 0 0 0 2 3 0 0 0 0 0 0
CIN
0 0 0 0 0 0 0 0 0 -1 0 0 0 0 0 0 0 0 0 0 0 0
0 0 0 0 0 0 0 0 0 0 0 -1 0 0 0 0 0 0 0 0 0 0
0 0 0 0 0 0 0 0 0 0 0 0 0 0 0 0 0 0 0 0 0 0
0 0 0 0 0 0 0 0 0 0 0 0 -1 -1 0 0 0 0 0 0 0 0
0 0 0 0 0 0 0 0 0 0 0 0 0 0 0 0 0 0 0 0 0 0
0 0 0 0 0 0 0 0 0 0 0 0 0 0 0 0 0 0 0 0 -1 -1
0 0 0 0 0 0 0 0 0 0 0 0 0 0 0 0 0 0 0 0 0 -1
0 0 0 0 0 0 0 0 0 0 0 0 0 0 0 0 0 0 0 0 0 -2
0 0 0 0 0 0 0 0 0 0 0 0 0 0 0 0 0 0 0 0 0 -1
0 0 0 0 0 0 0 0 0 0 0 0 0 0 0 0 0 0 0 0 0 0
0 0 0 0 0 0 0 0 0 0 0 0 0 0 0 0 0 0 0 0 0 0
0 0 0 0 0 0 0 0 0 0 0 0 0 0 0 0 0 0 0 0 -2 0
0 0 0 0 0 0 0 0 0 0 0 0 0 0 0 0 0 0 0 0 0 0
0 0 0 0 0 0 0 0 0 0 0 0 0 0 0 0 0 0 0 0 0 0
Wind_Speed
6 4 6 7 6 6 7 8 12 11 12 14 15 12 12 9 9 11 10 12 11 8
6 7 6 6 6 5 6 8 10 11 12 13 14 14 13 10 13 12 12 12 13 10
5 5 5 4 5 8 7 8 10 10 11 13 14 15 14 11 14 13 11 11 15 13
4 4 4 4 5 5 7 9 10 10 12 14 13 14 13 13 15 16 16 15 17 18
3 3 4 4 4 4 6 8 8 11 12 11 13 13 14 15 15 16 17 17 18 19
2 2 3 2 2 3 4 4 8 10 12 10 7 12 13 12 13 14 15 16 15 17
2 3 1 4 5 4 4 4 8 10 11 11 7 6 11 13 13 12 13 16 15 17
5 6 6 7 8 9 9 8 7 9 10 10 11 9 10 11 13 15 15 16 16 18
5 6 6 7 8 8 9 10 10 12 12 12 10 20 20 15 12 13 15 15 15 15
6 6 6 8 8 8 9 8 10 10 11 13 13 23 21 20 11 12 13 15 14 14
7 7 6 6 7 6 6 7 8 9 10 11 14 23 22 20 11 11 13 13 14 14
7 6 6 6 6 5 5 5 7 8 9 10 12 24 22 15 11 11 12 12 12 13
6 5 5 5 5 4 4 5 5 8 8 16 10 20 21 15 8 10 8 10 10 21
6 5 5 4 3 3 3 5 4 4 3 6 10 11 20 19 6 4 6 6 6 5
Wind_Direction
49 28 29 21 11 10 9 11 12 5 3 8 1 358 7 1 357 2 354 357 348 330
49 49 43 25 21 11 8 18 18 12 9 8 12 6 8 10 8 8 9 7 0 351
53 50 49 34 28 26 20 18 24 17 15 18 19 13 9 14 11 10 13 17 13 7
42 43 52 37 33 36 34 33 23 16 24 29 20 16 16 13 16 16 14 15 18 17
76 350 50 52 15 52 47 39 22 21 28 28 30 18 18 18 17 18 14 9 19 21
162 293 334 72 304 92 70 33 28 26 25 14 25 33 25 16 21 24 18 12 13 20
81 203 327 27 61 70 86 59 42 30 23 11 11 41 34 27 21 23 24 22 15 28
78 77 72 61 59 57 50 53 50 40 28 10 20 50 44 37 26 27 28 27 24 26
103 86 77 72 66 64 57 45 48 41 35 30 22 44 49 50 39 30 34 29 27 30
80 81 85 82 78 70 65 52 46 49 38 38 32 32 42 49 44 38 30 38 32 33
80 73 64 81 91 85 84 73 56 49 43 40 41 40 38 40 40 39 34 26 42 36
76 70 64 66 68 86 87 79 74 59 57 37 42 42 41 37 38 37 32 25 20 46
99 97 88 82 75 75 80 94 87 74 59 51 29 39 43 41 34 33 23 19 13 34
117 110 124 145 129 114 95 99 101 102 41 46 44 21 35 38 34 30 12 4 3 6